Flag for U.S.A. Weather past 2 weeks in Breckenridge, Colorado, U.S.A.

Now
34 °F

Light snow. Cloudy.


Feels Like: 27 °F
Forecast: 38 / 52 °F
Wind: 8 mph from Southwest

Location: Copper Mountain - Red Cliff Pass

Current Time: Sep 30, 2014 at 5:58:05 PM

Latest Report: Sep 30, 2014 at 5:35 PM


Visibility: 2 mi

Pressure: 30.14 "Hg

Humidity: 81%

Dew point: 28 °F

Location of BreckenridgeLocation

Historic Weather in Breckenridge — Graph

°F

Breckenridge temperature yesterday

Maximum temperature yesterday: 46 °F (at 9:55 AM)
Minimum temperature yesterday: 32 °F (at 7:35 PM)
Average temperature yesterday: 38 °F

Past Weeks' High & Low Weather Summary

 TemperatureHumidityPressure
High68 °F (Sep 18, 1:36 PM)87% (Sep 22, 4:15 AM)30.73 "Hg (Sep 22, 4:15 AM)
Low30 °F (Sep 30, 1:35 AM)10% (Sep 18, 3:56 PM)30.10 "Hg (Sep 29, 6:55 PM)
Average50 °F52%30.54 "Hg
* Reported Sep 15 4:16 PM — Sep 30 4:35 PM, Breckenridge, Weather by CustomWeather, © 2014

Note: Actual official high and low records may vary slightly from our data, if they occured in-between our weather recording intervals... More about our weather records

Advertising

Breckenridge weather history for previous 24 hours

 ConditionsComfort  
Time TempWeatherWind HumidityBarometerVisibility
4:35 PM
Sep 30
34 °FCloudy.10 mph75%30.14 "Hg10 mi
4:15 PM34 °FMore clouds than sun.6 mph75%30.14 "Hg10 mi
3:55 PM34 °FMore clouds than sun.8 mph75%30.14 "Hg10 mi
3:35 PM34 °FCloudy.12 mph75%30.14 "Hg10 mi
2:35 PM34 °FOvercast.6 mph81%30.15 "Hg10 mi
2:15 PM34 °FCloudy.10 mph81%30.15 "Hg10 mi
1:55 PM34 °FCloudy.13 mph81%30.15 "Hg7 mi
1:35 PM34 °FLight snow. Low clouds.12 mph87%30.16 "Hg5 mi
1:15 PM34 °FLight snow. Low clouds.10 mph87%30.16 "Hg7 mi
12:55 PM34 °FMostly cloudy.14 mph87%30.16 "Hg10 mi
12:35 PM34 °FLight snow. Cloudy.13 mph87%30.16 "Hg7 mi
12:15 PM34 °FCloudy.9 mph87%30.16 "Hg10 mi
11:55 AM32 °FLow clouds.14 mph87%30.16 "Hg2 mi
11:35 AM32 °FMostly cloudy.13 mph87%30.16 "Hg10 mi
11:15 AM32 °FMostly cloudy.15 mph87%30.16 "Hg10 mi
10:55 AM32 °FLow clouds.17 mph87%30.15 "Hg10 mi
10:35 AM32 °FCloudy.17 mph87%30.16 "Hg5 mi
10:15 AM32 °FCloudy.15 mph80%30.17 "Hg10 mi
9:55 AM32 °FOvercast.16 mph80%30.16 "Hg10 mi
9:35 AM32 °FMore clouds than sun.18 mph80%30.16 "Hg10 mi
9:15 AM30 °FMore clouds than sun.18 mph80%30.16 "Hg10 mi
8:55 AM30 °FOvercast.14 mph86%30.15 "Hg10 mi
8:35 AM30 °FMore clouds than sun.22 mph86%30.15 "Hg10 mi
8:15 AM30 °FCloudy.18 mph86%30.15 "Hg10 mi
7:55 AM30 °FMostly cloudy.18 mph86%30.15 "Hg10 mi
7:35 AM30 °FMostly cloudy.12 mph86%30.15 "Hg10 mi
7:15 AM30 °FOvercast.12 mph86%30.15 "Hg10 mi
6:55 AM30 °FIce fog.13 mph86%30.15 "Hg0 mi
6:35 AM30 °FLow clouds.15 mph86%30.15 "Hg0 mi
6:15 AM30 °FLow clouds.13 mph86%30.15 "Hg0 mi
5:55 AM30 °FMostly cloudy.22 mph86%30.14 "Hg7 mi
5:35 AM30 °FIce fog.22 mph86%30.13 "Hg0 mi
4:55 AM30 °FIce fog.23 mph86%30.14 "Hg1 mi
4:35 AM32 °FLow clouds.23 mph80%30.14 "Hg0 mi
4:15 AM32 °FLight snow. Low clouds.24 mph87%30.13 "Hg0 mi
3:55 AM32 °FSnow. Low clouds.21 mph87%30.13 "Hg0 mi
3:35 AM32 °FLight snow. Low clouds.21 mph87%30.14 "Hg1 mi
3:15 AM32 °FMostly cloudy.21 mph87%30.14 "Hg7 mi
2:55 AM32 °FLow clouds.14 mph80%30.14 "Hg1 mi
2:35 AM32 °FLow clouds.14 mph80%30.15 "Hg1 mi
2:15 AM30 °FLow clouds.18 mph86%30.15 "Hg7 mi
1:55 AM30 °FLight snow. Mostly cloudy.18 mph86%30.15 "Hg3 mi
1:35 AM30 °FIce fog.22 mph86%30.15 "Hg1 mi
1:15 AM32 °FLow clouds.20 mph80%30.15 "Hg1 mi
12:55 AM32 °FMostly cloudy.20 mph87%30.15 "Hg10 mi
12:35 AM32 °FLow clouds.23 mph80%30.15 "Hg5 mi
12:15 AM32 °FLow clouds.16 mph80%30.17 "Hg7 mi
11:55 PM
Sep 29
32 °FMostly cloudy.13 mph80%30.17 "Hg10 mi
11:35 PM32 °FLight snow. Mostly cloudy.21 mph80%30.18 "Hg4 mi
11:15 PM32 °FMostly cloudy.20 mph80%30.19 "Hg10 mi
10:55 PM32 °FLight snow. Overcast.18 mph87%30.18 "Hg7 mi
10:35 PM32 °FLight snow. Overcast.17 mph87%30.18 "Hg7 mi
10:15 PM32 °FLight snow. Mostly cloudy.22 mph87%30.17 "Hg10 mi
9:55 PM32 °FThundershowers. Low clouds.16 mph87%30.16 "Hg3 mi
9:35 PM32 °FThundershowers. Mostly cloudy.16 mph87%30.16 "Hg2 mi
9:15 PM32 °FThundershowers. Mostly cloudy.15 mph87%30.15 "Hg5 mi
8:55 PM32 °FLight snow. Low clouds.13 mph87%30.14 "Hg1 mi
8:35 PM32 °FLight snow. Overcast.10 mph87%30.14 "Hg2 mi
8:15 PM32 °FLight snow. Mostly cloudy.17 mph87%30.12 "Hg3 mi
7:56 PM32 °FSnow. Low clouds.24 mph87%30.11 "Hg0 mi
7:35 PM32 °FHeavy snow. Low clouds.26 mph87%30.12 "Hg0 mi
7:15 PM34 °FSnow. Low clouds.28 mph87%30.10 "Hg0 mi
6:55 PM34 °FSnow. Low clouds.26 mph87%30.10 "Hg0 mi
6:35 PM34 °FHeavy snow. Low clouds.26 mph87%30.13 "Hg0 mi
6:15 PM34 °FHeavy snow. Low clouds.26 mph87%30.13 "Hg0 mi
5:55 PM34 °FSnow. Low clouds.28 mph87%30.14 "Hg0 mi
5:35 PM34 °FHeavy snow. Low clouds.26 mph87%30.12 "Hg0 mi
5:15 PM36 °FLight snow. Low clouds.7 mph87%30.15 "Hg0 mi
Weather by CustomWeather, © 2014

See weather overviewHow to use our weather pages